• In Moldova, Republic
  • List of Countries
  • For 7 days
  • Water Temperature
  • Satellite Maps
  • Weather Map
  • Weather Widgets
  • user-avatar
    Login

    Hourly Weather Wlora

    Today, 17 November, Friday

    Time Temperature Precipitation Wind Pressure Humidity
    00:00 +14°C° 0.2 mm 4 mps 758 mmHg 78%
    01:00 +14°C° 0 mm 4 mps 758 mmHg 79%
    02:00 +14°C° 0.2 mm 5 mps 757 mmHg 81%
    03:00 +14°C° 0.2 mm 5 mps 757 mmHg 82%
    04:00 +14°C° 0.2 mm 6 mps 757 mmHg 83%
    05:00 +14°C° 0.2 mm 5 mps 757 mmHg 83%
    06:00 +14°C° 0.2 mm 5 mps 757 mmHg 83%
    07:00 +14°C° 0 mm 5 mps 757 mmHg 82%
    08:00 +15°C° 0.2 mm 5 mps 757 mmHg 77%
    09:00 +16°C° 0.2 mm 5 mps 757 mmHg 72%
    10:00 +17°C° 0.2 mm 5 mps 758 mmHg 67%
    11:00 +17°C° 1.4 mm 6 mps 757 mmHg 68%
    12:00 +17°C° 1.4 mm 6 mps 757 mmHg 70%
    13:00 +16°C° 0 mm 6 mps 757 mmHg 71%
    14:00 +16°C° 2 mm 7 mps 757 mmHg 73%
    15:00 +15°C° 2 mm 7 mps 757 mmHg 75%
    16:00 +15°C° 2 mm 7 mps 757 mmHg 77%
    17:00 +15°C° 0.3 mm 7 mps 757 mmHg 78%
    18:00 +14°C° 0.3 mm 7 mps 757 mmHg 78%
    19:00 +14°C° 0.3 mm 7 mps 757 mmHg 79%
    20:00 +14°C° 0.2 mm 7 mps 758 mmHg 78%
    21:00 +13°C° 0.2 mm 6 mps 758 mmHg 78%
    22:00 +13°C° 0.2 mm 6 mps 758 mmHg 78%
    23:00 +13°C° 0.2 mm 6 mps 758 mmHg 78%

    Tomorrow, 18 November, Saturday

    Time Temperature Precipitation Wind Pressure Humidity
    00:00 +13°C° 0.2 mm 6 mps 758 mmHg 79%
    01:00 +13°C° 0.2 mm 6 mps 758 mmHg 79%
    02:00 +13°C° 0.3 mm 5 mps 758 mmHg 78%
    03:00 +13°C° 0.3 mm 5 mps 758 mmHg 78%
    04:00 +13°C° 0.3 mm 4 mps 758 mmHg 77%
    05:00 +13°C° 0.3 mm 4 mps 758 mmHg 78%
    06:00 +13°C° 0.3 mm 4 mps 758 mmHg 78%
    07:00 +13°C° 0.3 mm 4 mps 758 mmHg 78%
    08:00 +14°C° 0.1 mm 3 mps 758 mmHg 73%
    09:00 +17°C° 0.1 mm 3 mps 758 mmHg 67%
    10:00 +18°C° 0.1 mm 3 mps 759 mmHg 61%
    11:00 +19°C° 0 mm 3 mps 758 mmHg 59%
    12:00 +19°C° 0 mm 3 mps 758 mmHg 57%
    13:00 +20°C° 0 mm 3 mps 758 mmHg 55%
    14:00 +19°C° 0.1 mm 4 mps 758 mmHg 61%
    15:00 +18°C° 0.1 mm 4 mps 758 mmHg 66%
    16:00 +16°C° 0.1 mm 5 mps 758 mmHg 71%
    17:00 +15°C° 0 mm 5 mps 758 mmHg 74%
    18:00 +15°C° 0 mm 5 mps 758 mmHg 76%
    19:00 +14°C° 0 mm 5 mps 759 mmHg 78%
    20:00 +14°C° 0 mm 5 mps 759 mmHg 79%
    21:00 +13°C° 0 mm 5 mps 759 mmHg 79%
    22:00 +13°C° 0 mm 5 mps 759 mmHg 79%
    23:00 +13°C° 0.1 mm 5 mps 759 mmHg 79%

    Day after tomorrow, 19 November, Sunday

    Time Temperature Precipitation Wind Pressure Humidity
    00:00 +13°C° 0.1 mm 5 mps 759 mmHg 80%
    01:00 +13°C° 0.1 mm 5 mps 759 mmHg 80%
    02:00 +13°C° 0.1 mm 5 mps 759 mmHg 81%
    03:00 +12°C° 0.1 mm 4 mps 759 mmHg 81%
    04:00 +12°C° 0.1 mm 4 mps 759 mmHg 82%
    05:00 +12°C° 0 mm 4 mps 759 mmHg 82%
    06:00 +12°C° 0 mm 4 mps 759 mmHg 82%
    07:00 +12°C° 0 mm 4 mps 759 mmHg 82%
    08:00 +13°C° 0.2 mm 4 mps 759 mmHg 75%
    09:00 +14°C° 0.2 mm 4 mps 759 mmHg 69%
    10:00 +16°C° 0.2 mm 5 mps 759 mmHg 63%
    11:00 +16°C° 0.1 mm 5 mps 759 mmHg 63%
    12:00 +16°C° 0.1 mm 5 mps 759 mmHg 63%
    13:00 +16°C° 0.1 mm 5 mps 758 mmHg 64%
    14:00 +16°C° 0.1 mm 5 mps 758 mmHg 68%
    15:00 +15°C° 0.1 mm 5 mps 758 mmHg 73%
    16:00 +14°C° 0.1 mm 6 mps 758 mmHg 78%
    17:00 +14°C° 0 mm 5 mps 758 mmHg 80%
    18:00 +13°C° 0 mm 5 mps 759 mmHg 83%
    19:00 +12°C° 0 mm 5 mps 759 mmHg 86%
    20:00 +12°C° 0.1 mm 5 mps 759 mmHg 86%
    21:00 +12°C° 0.1 mm 5 mps 759 mmHg 86%
    22:00 +12°C° 0.1 mm 5 mps 759 mmHg 86%
    23:00 +10°C° 0.2 mm 5 mps 759 mmHg 86%

    20 November, Monday

    Time Temperature Precipitation Wind Pressure Humidity
    00:00 +10°C° 0.2 mm 6 mps 759 mmHg 86%
    01:00 +10°C° 0.2 mm 6 mps 759 mmHg 86%
    02:00 +10°C° 0.6 mm 7 mps 759 mmHg 85%
    03:00 +10°C° 0.6 mm 7 mps 759 mmHg 85%
    04:00 +10°C° 0.6 mm 8 mps 759 mmHg 84%
    05:00 +9°C° 0.8 mm 8 mps 760 mmHg 84%
    06:00 +9°C° 0.8 mm 8 mps 760 mmHg 83%
    07:00 +9°C° 0.8 mm 8 mps 760 mmHg 83%
    08:00 +10°C° 0 mm 9 mps 761 mmHg 74%
    09:00 +11°C° 0 mm 9 mps 761 mmHg 66%
    10:00 +12°C° 0 mm 10 mps 762 mmHg 57%
    11:00 +12°C° 0 mm 10 mps 762 mmHg 53%
    12:00 +12°C° 0 mm 10 mps 762 mmHg 50%
    13:00 +13°C° 0 mm 10 mps 763 mmHg 46%
    14:00 +12°C° 0 mm 9 mps 763 mmHg 50%
    15:00 +11°C° 0 mm 9 mps 763 mmHg 55%
    16:00 +10°C° 0 mm 9 mps 764 mmHg 59%
    17:00 +9°C° 0 mm 8 mps 764 mmHg 62%
    18:00 +9°C° 0 mm 8 mps 765 mmHg 64%
    19:00 +8°C° 0 mm 7 mps 765 mmHg 67%
    20:00 +8°C° 0 mm 7 mps 766 mmHg 67%
    21:00 +7°C° 0 mm 6 mps 766 mmHg 67%
    22:00 +7°C° 0 mm 6 mps 767 mmHg 68%
    23:00 +7°C° 0 mm 6 mps 766 mmHg 68%

    21 November, Tuesday

    Time Temperature Precipitation Wind Pressure Humidity
    00:00 +6°C° 0 mm 5 mps 766 mmHg 68%
    01:00 +6°C° 0 mm 5 mps 766 mmHg 68%
    02:00 +6°C° 0 mm 5 mps 766 mmHg 67%
    03:00 +6°C° 0 mm 5 mps 766 mmHg 66%
    04:00 +6°C° 0 mm 5 mps 766 mmHg 65%
    05:00 +6°C° 0 mm 4 mps 766 mmHg 63%
    06:00 +6°C° 0 mm 4 mps 766 mmHg 61%
    07:00 +7°C° 0 mm 3 mps 766 mmHg 59%
    08:00 +9°C° 0 mm 3 mps 766 mmHg 52%
    09:00 +10°C° 0 mm 3 mps 766 mmHg 45%
    10:00 +12°C° 0 mm 3 mps 766 mmHg 37%
    11:00 +13°C° 0 mm 3 mps 766 mmHg 37%
    12:00 +13°C° 0 mm 3 mps 765 mmHg 37%
    13:00 +14°C° 0 mm 3 mps 765 mmHg 37%
    14:00 +13°C° 0 mm 3 mps 765 mmHg 42%
    15:00 +12°C° 0 mm 3 mps 765 mmHg 47%
    16:00 +12°C° 0 mm 2 mps 765 mmHg 51%
    17:00 +10°C° 0 mm 3 mps 765 mmHg 52%
    18:00 +10°C° 0 mm 3 mps 765 mmHg 53%
    19:00 +9°C° 0 mm 3 mps 766 mmHg 54%
    20:00 +9°C° 0 mm 3 mps 766 mmHg 54%
    21:00 +8°C° 0 mm 3 mps 766 mmHg 54%
    22:00 +8°C° 0 mm 3 mps 766 mmHg 53%
    23:00 +8°C° 0 mm 3 mps 766 mmHg 53%

    22 November, Wednesday

    Time Temperature Precipitation Wind Pressure Humidity
    00:00 +8°C° 0 mm 3 mps 766 mmHg 53%
    01:00 +8°C° 0 mm 3 mps 766 mmHg 53%
    02:00 +8°C° 0 mm 3 mps 766 mmHg 53%
    03:00 +8°C° 0 mm 3 mps 766 mmHg 54%
    04:00 +8°C° 0 mm 3 mps 766 mmHg 55%
    05:00 +8°C° 0 mm 3 mps 766 mmHg 56%
    06:00 +8°C° 0 mm 3 mps 766 mmHg 58%
    07:00 +8°C° 0 mm 3 mps 766 mmHg 59%
    08:00 +10°C° 0 mm 3 mps 766 mmHg 55%
    09:00 +11°C° 0 mm 3 mps 766 mmHg 51%
    10:00 +14°C° 0 mm 2 mps 767 mmHg 47%
    11:00 +14°C° 0 mm 3 mps 766 mmHg 46%
    12:00 +16°C° 0 mm 3 mps 766 mmHg 45%
    13:00 +16°C° 0 mm 3 mps 766 mmHg 43%
    14:00 +16°C° 0 mm 3 mps 766 mmHg 49%
    15:00 +14°C° 0 mm 3 mps 766 mmHg 55%
    16:00 +13°C° 0 mm 3 mps 766 mmHg 60%
    17:00 +12°C° 0 mm 3 mps 766 mmHg 61%
    18:00 +11°C° 0 mm 3 mps 766 mmHg 62%
    19:00 +11°C° 0 mm 3 mps 766 mmHg 64%
    20:00 +11°C° 0 mm 3 mps 766 mmHg 62%
    21:00 +12°C° 0 mm 2 mps 767 mmHg 61%
    22:00 +12°C° 0 mm 2 mps 767 mmHg 60%
    23:00 +10°C° 0 mm 2 mps 767 mmHg 59%
    Show more